Home > Time Zones > World Clock > Weather > China > Hefei > Past weeks

Flag for China Weather past 2 weeks in Hefei, Anhui, China

Now
73 °F

Fog.


Feels Like: 73 °F
Forecast: 70 / 87 °F
Wind: 6 mph from Southeast

Location: Hefei Airport

Current Time: May 31, 2015 at 3:12:02 AM

Latest Report: May 31, 2015 at 2:00 AM


Visibility: 2 mi

Pressure: 29.77 "Hg

Humidity: 83%

Dew point: 68 °F

Location of HefeiLocation

Historic Weather in Hefei — Graph

°F

Hefei temperature yesterday

Maximum temperature yesterday: 82 °F (at 2:00 PM)
Minimum temperature yesterday: 68 °F (at 12:00 AM)
Average temperature yesterday: 74 °F

Past Weeks' High & Low Weather Summary

 TemperatureHumidityPressure
High90 °F (May 19, 2:00 PM)100% (May 18, 1:00 AM)30.04 "Hg (May 18, 1:00 AM)
Low59 °F (May 21, 3:00 AM)26% (May 20, 2:00 PM)29.59 "Hg (May 18, 3:00 AM)
Average73 °F71%29.77 "Hg
* Reported May 16 1:00 AM — May 31 1:00 AM, Hefei, Weather by CustomWeather, © 2015

Note: Actual official high and low records may vary slightly from our data, if they occured in-between our weather recording intervals... More about our weather records

Advertising

Hefei weather history for previous 24 hours

 ConditionsComfort  
Time TempWeatherWind HumidityBarometerVisibility
1:00 AM
Sun, May 31
73 °FFog.6 mph83%29.80 "Hg2 mi
12:00 AM75 °FFog.8 mph83%29.80 "Hg1 mi
11:00 PM
Sat, May 30
73 °FFog.6 mph89%29.80 "Hg2 mi
10:00 PM75 °FFog.8 mph83%29.80 "Hg2 mi
9:00 PM75 °FFog.3 mph89%29.77 "Hg2 mi
8:00 PM77 °FFog.1 mph83%29.74 "Hg2 mi
7:00 PM79 °FFog.3 mph79%29.74 "Hg2 mi
6:00 PM81 °FPartly sunny.3 mph66%29.71 "Hg2 mi
5:00 PM82 °FOvercast.No wind62%29.71 "Hg2 mi
4:00 PM82 °FPartly sunny.1 mph62%29.71 "Hg2 mi
3:00 PM82 °FOvercast.1 mph62%29.74 "Hg2 mi
2:00 PM82 °FPartly sunny.1 mph62%29.74 "Hg3 mi
1:00 PM79 °FPartly sunny.1 mph70%29.77 "Hg3 mi
12:00 PM79 °FScattered clouds.3 mph70%29.77 "Hg3 mi
11:00 AM77 °FFog.3 mph79%29.80 "Hg3 mi
10:00 AM73 °FFog.6 mph89%29.80 "Hg2 mi
9:00 AM72 °FFog.1 mph94%29.80 "Hg2 mi
8:00 AM72 °FFog.3 mph88%29.77 "Hg2 mi
7:00 AM70 °FFog.3 mph94%29.74 "Hg2 mi
6:00 AM68 °FFog.6 mph100%29.74 "Hg2 mi
5:00 AM68 °FFog.6 mph100%29.71 "Hg2 mi
4:00 AM68 °FFog.6 mph100%29.71 "Hg2 mi
3:00 AM68 °FFog.6 mph100%29.71 "Hg2 mi
Weather by CustomWeather, © 2015

See weather overviewHow to use our weather pages